QPF
0.02 0.03 0.03 0.02 0.03 0.03 0.03 0.04 0.03 0.04 0.04 0.04 0.04 0.05 0.06 0.06 0.05 0.03 0.04 0.03 0.04 0.05 0.04 0.05 0.05 0.05 0.05 0.04 0.04 0.05 0.06 0.06 0.07 0.08 0.10 0.09 0.08 0.06 0.05 0.05 0.07 0.05 0.05
0.03 0.02 0.02 0.03 0.03 0.03 0.03 0.04 0.03 0.04 0.04 0.04 0.03 0.03 0.04 0.04 0.04 0.04 0.04 0.03 0.03 0.05 0.05 0.04 0.03 0.03 0.04 0.04 0.03 0.04 0.05 0.05 0.07 0.08 0.09 0.09 0.11 0.09 0.05 0.05 0.06 0.05 0.05
0.02 0.02 0.01 0.02 0.02 0.02 0.02 0.02 0.03 0.04 0.05 0.06 0.05 0.05 0.05 0.04 0.04 0.04 0.04 0.04 0.04 0.05 0.07 0.06 0.05 0.04 0.05 0.04 0.04 0.04 0.06 0.05 0.06 0.07 0.08 0.08 0.06 0.06 0.06 0.05 0.05 0.04 0.04
0.01 0.01 0.01 0.01 0.01 0.01 0.01 0.02 0.03 0.03 0.04 0.05 0.05 0.05 0.05 0.04 0.04 0.04 0.05 0.06 0.07 0.07 0.06 0.05 0.06 0.06 0.05 0.05 0.04 0.04 0.05 0.06 0.06 0.07 0.07 0.06 0.06 0.07 0.08 0.07 0.06 0.06 0.05
0.01 0.00 0.00 0.00 0.01 0.01 0.01 0.02 0.03 0.03 0.03 0.04 0.04 0.05 0.07 0.06 0.07 0.06 0.07 0.07 0.08 0.07 0.06 0.04 0.05 0.06 0.05 0.05 0.05 0.06 0.05 0.06 0.06 0.06 0.07 0.08 0.08 0.08 0.09 0.08 0.08 0.08 0.06
0.00 0.00 0.00 0.00 0.01 0.02 0.02 0.03 0.03 0.03 0.03 0.03 0.04 0.05 0.06 0.06 0.07 0.08 0.08 0.08 0.07 0.08 0.07 0.07 0.07 0.07 0.07 0.07 0.06 0.06 0.05 0.06 0.06 0.07 0.06 0.07 0.07 0.07 0.08 0.09 0.09 0.08 0.06
0.00 0.00 0.01 0.00 0.01 0.02 0.02 0.03 0.02 0.03 0.03 0.02 0.03 0.03 0.04 0.05 0.06 0.06 0.07 0.08 0.07 0.07 0.07 0.07 0.08 0.09 0.09 0.08 0.06 0.05 0.05 0.05 0.05 0.04 0.05 0.05 0.05 0.05 0.06 0.07 0.07 0.07 0.07
0.00 0.00 0.00 0.01 0.01 0.01 0.02 0.02 0.02 0.02 0.02 0.01 0.02 0.02 0.04 0.04 0.05 0.06 0.06 0.05 0.05 0.05 0.06 0.06 0.07 0.06 0.06 0.06 0.07 0.06 0.06 0.06 0.05 0.04 0.05 0.05 0.04 0.05 0.06 0.07 0.07 0.07 0.07
0.00 0.00 0.00 0.01 0.01 0.01 0.01 0.02 0.02 0.01 0.01 0.02 0.02 0.03 0.04 0.05 0.06 0.06 0.05 0.04 0.05 0.05 0.05 0.06 0.06 0.07 0.07 0.07 0.07 0.07 0.07 0.07 0.05 0.05 0.05 0.04 0.04 0.06 0.05 0.06 0.06 0.07 0.07
0.00 0.00 0.00 0.00 0.01 0.01 0.01 0.01 0.01 0.01 0.02 0.02 0.02 0.03 0.05 0.05 0.06 0.07 0.06 0.06 0.06 0.05 0.05 0.05 0.05 0.07 0.07 0.07 0.07 0.06 0.06 0.06 0.05 0.05 0.05 0.04 0.04 0.05 0.06 0.07 0.06 0.06 0.06
0.00 0.00 0.00 0.01 0.01 0.01 0.01 0.02 0.02 0.02 0.01 0.02 0.03 0.04 0.04 0.05 0.06 0.08 0.08 0.08 0.07 0.06 0.05 0.05 0.06 0.06 0.05 0.05 0.05 0.05 0.05 0.05 0.06 0.06 0.06 0.06 0.06 0.07 0.07 0.07 0.07 0.07 0.07
0.01 0.01 0.01 0.01 0.01 0.02 0.02 0.02 0.01 0.01 0.02 0.03 0.04 0.05 0.06 0.06 0.06 0.06 0.06 0.06 0.06 0.06 0.06 0.05 0.06 0.05 0.04 0.04 0.04 0.04 0.05 0.06 0.06 0.06 0.08 0.08 0.07 0.08 0.07 0.07 0.08 0.08 0.08
0.01 0.01 0.01 0.01 0.02 0.04 0.03 0.03 0.03 0.02 0.03 0.04 0.04 0.04 0.05 0.06 0.05 0.06 0.07 0.06 0.06 0.06 0.06 0.05 0.05 0.05 0.05 0.05 0.06 0.06 0.07 0.06 0.05 0.06 0.07 0.06 0.07 0.06 0.06 0.06 0.06 0.07 0.07
0.03 0.02 0.01 0.02 0.03 0.04 0.04 0.03 0.03 0.03 0.04 0.04 0.04 0.04 0.04 0.04 0.05 0.06 0.06 0.06 0.05 0.04 0.04 0.05 0.05 0.05 0.05 0.05 0.07 0.08 0.08 0.07 0.07 0.06 0.05 0.05 0.05 0.04 0.05 0.04 0.05 0.05 0.06
0.05 0.06 0.04 0.03 0.04 0.04 0.04 0.04 0.03 0.03 0.04 0.04 0.04 0.04 0.05 0.04 0.04 0.05 0.05 0.05 0.04 0.03 0.04 0.05 0.05 0.06 0.05 0.05 0.06 0.08 0.08 0.09 0.08 0.06 0.05 0.05 0.04 0.04 0.04 0.03 0.03 0.04 0.05
0.04 0.07 0.03 0.02 0.03 0.04 0.04 0.04 0.04 0.03 0.03 0.04 0.03 0.04 0.03 0.03 0.03 0.03 0.03 0.03 0.02 0.03 0.04 0.06 0.05 0.04 0.03 0.03 0.04 0.05 0.07 0.10 0.08 0.06 0.05 0.05 0.05 0.05 0.05 0.04 0.03 0.04 0.04
0.02 0.02 0.01 0.01 0.02 0.03 0.04 0.04 0.03 0.03 0.02 0.02 0.02 0.02 0.02 0.02 0.02 0.02 0.02 0.02 0.03 0.04 0.05 0.06 0.06 0.05 0.04 0.03 0.03 0.03 0.04 0.06 0.06 0.06 0.06 0.05 0.05 0.06 0.05 0.05 0.04 0.03 0.04
0.02 0.01 0.01 0.02 0.02 0.03 0.03 0.03 0.02 0.02 0.02 0.01 0.01 0.02 0.02 0.02 0.02 0.02 0.02 0.02 0.03 0.04 0.05 0.06 0.05 0.04 0.04 0.04 0.03 0.03 0.03 0.04 0.05 0.05 0.06 0.07 0.06 0.05 0.05 0.05 0.04 0.03 0.04
0.01 0.01 0.01 0.02 0.02 0.02 0.02 0.02 0.02 0.02 0.01 0.01 0.01 0.01 0.02 0.02 0.01 0.01 0.01 0.03 0.03 0.03 0.04 0.05 0.06 0.06 0.05 0.03 0.03 0.04 0.05 0.06 0.07 0.07 0.07 0.06 0.07 0.05 0.05 0.05 0.04 0.04 0.04
0.01 0.01 0.03 0.02 0.02 0.02 0.02 0.03 0.02 0.02 0.01 0.00 0.00 0.00 0.01 0.01 0.01 0.01 0.02 0.02 0.03 0.03 0.03 0.04 0.04 0.04 0.04 0.03 0.02 0.03 0.04 0.04 0.06 0.06 0.05 0.05 0.05 0.03 0.03 0.03 0.04 0.03 0.03
0.02 0.01 0.03 0.04 0.03 0.02 0.01 0.02 0.02 0.01 0.00 0.00 0.00 0.00 0.01 0.01 0.01 0.02 0.02 0.02 0.02 0.03 0.04 0.04 0.05 0.06 0.06 0.04 0.03 0.02 0.03 0.04 0.05 0.05 0.04 0.04 0.03 0.03 0.03 0.04 0.05 0.06 0.07
0.03 0.01 0.01 0.02 0.02 0.02 0.01 0.01 0.01 0.00 0.00 0.00 0.00 0.01 0.00 0.00 0.01 0.02 0.02 0.01 0.02 0.02 0.04 0.05 0.05 0.06 0.06 0.04 0.03 0.02 0.02 0.04 0.04 0.05 0.04 0.03 0.03 0.02 0.04 0.06 0.08 0.08 0.08
0.02 0.01 0.01 0.01 0.01 0.01 0.00 0.00 0.00 0.00 0.00 0.01 0.01 0.01 0.00 0.00 0.01 0.02 0.02 0.01 0.02 0.02 0.03 0.03 0.04 0.04 0.05 0.05 0.04 0.02 0.02 0.03 0.04 0.05 0.05 0.03 0.02 0.02 0.03 0.05 0.07 0.08 0.08
0.01 0.01 0.01 0.01 0.01 0.00 0.00 0.00 0.00 0.01 0.01 0.01 0.01 0.01 0.00 0.00 0.01 0.02 0.02 0.02 0.02 0.02 0.02 0.03 0.03 0.04 0.05 0.05 0.03 0.03 0.03 0.03 0.03 0.04 0.04 0.02 0.02 0.02 0.03 0.04 0.05 0.06 0.07
0.01 0.00 0.01 0.01 0.01 0.01 0.01 0.00 0.01 0.01 0.01 0.01 0.01 0.01 0.01 0.00 0.01 0.02 0.02 0.02 0.02 0.02 0.02 0.02 0.03 0.03 0.04 0.03 0.01 0.01 0.02 0.03 0.02 0.03 0.03 0.03 0.03 0.03 0.04 0.04 0.05 0.05 0.06
0.01 0.00 0.01 0.01 0.01 0.01 0.01 0.01 0.01 0.01 0.02 0.02 0.01 0.01 0.00 0.01 0.01 0.02 0.03 0.03 0.02 0.02 0.02 0.02 0.01 0.02 0.03 0.02 0.01 0.00 0.01 0.02 0.02 0.03 0.04 0.04 0.04 0.04 0.04 0.05 0.06 0.05 0.05
MSLP
1005.98 1006.62 1007.32 1008.02 1008.70 1009.34 1009.95 1010.51 1011.05 1011.54 1011.98 1012.36 1012.67 1012.90 1013.06 1013.14 1013.19 1013.22 1013.28 1013.39 1013.57 1013.83 1014.15 1014.53 1014.94 1015.36 1015.77 1016.16 1016.52 1016.85 1017.16 1017.44 1017.68 1017.88 1018.03 1018.12 1018.14 1018.09 1017.98 1017.84 1017.69 1017.58 1017.54
1005.63 1006.33 1007.09 1007.84 1008.56 1009.24 1009.86 1010.44 1010.99 1011.50 1011.98 1012.40 1012.75 1013.02 1013.19 1013.27 1013.29 1013.28 1013.27 1013.30 1013.41 1013.59 1013.87 1014.22 1014.62 1015.05 1015.47 1015.87 1016.24 1016.59 1016.91 1017.20 1017.47 1017.71 1017.91 1018.05 1018.13 1018.14 1018.07 1017.95 1017.81 1017.67 1017.57
1005.32 1006.09 1006.91 1007.72 1008.48 1009.18 1009.80 1010.38 1010.91 1011.42 1011.91 1012.35 1012.73 1013.03 1013.23 1013.33 1013.34 1013.30 1013.24 1013.22 1013.26 1013.39 1013.61 1013.92 1014.30 1014.71 1015.12 1015.53 1015.91 1016.27 1016.60 1016.91 1017.21 1017.49 1017.74 1017.94 1018.09 1018.17 1018.16 1018.09 1017.96 1017.81 1017.67
1005.10 1005.93 1006.82 1007.70 1008.50 1009.21 1009.82 1010.37 1010.88 1011.36 1011.82 1012.26 1012.65 1012.97 1013.19 1013.30 1013.33 1013.28 1013.20 1013.14 1013.13 1013.20 1013.37 1013.64 1013.97 1014.35 1014.76 1015.15 1015.53 1015.89 1016.23 1016.56 1016.88 1017.20 1017.50 1017.77 1017.99 1018.14 1018.21 1018.19 1018.10 1017.96 1017.79
1004.96 1005.87 1006.83 1007.77 1008.61 1009.34 1009.94 1010.45 1010.91 1011.34 1011.75 1012.16 1012.54 1012.86 1013.09 1013.23 1013.27 1013.22 1013.14 1013.05 1013.00 1013.03 1013.14 1013.35 1013.64 1013.98 1014.36 1014.74 1015.11 1015.47 1015.81 1016.16 1016.50 1016.85 1017.19 1017.52 1017.80 1018.02 1018.15 1018.19 1018.15 1018.04 1017.90
1004.93 1005.89 1006.92 1007.92 1008.81 1009.55 1010.14 1010.62 1011.01 1011.38 1011.73 1012.08 1012.42 1012.73 1012.96 1013.11 1013.16 1013.13 1013.04 1012.94 1012.86 1012.84 1012.90 1013.05 1013.29 1013.59 1013.92 1014.28 1014.63 1014.99 1015.34 1015.69 1016.05 1016.42 1016.80 1017.16 1017.49 1017.76 1017.96 1018.07 1018.09 1018.04 1017.93
1004.97 1005.98 1007.07 1008.12 1009.04 1009.80 1010.38 1010.82 1011.16 1011.45 1011.74 1012.02 1012.31 1012.58 1012.80 1012.95 1013.01 1012.99 1012.90 1012.78 1012.68 1012.62 1012.63 1012.72 1012.90 1013.14 1013.44 1013.76 1014.10 1014.45 1014.80 1015.16 1015.54 1015.92 1016.31 1016.70 1017.06 1017.38 1017.63 1017.80 1017.89 1017.91 1017.87
1005.07 1006.10 1007.22 1008.30 1009.25 1010.02 1010.59 1011.00 1011.29 1011.52 1011.74 1011.96 1012.19 1012.42 1012.61 1012.75 1012.81 1012.78 1012.70 1012.57 1012.44 1012.34 1012.30 1012.34 1012.46 1012.65 1012.90 1013.19 1013.52 1013.86 1014.21 1014.58 1014.96 1015.35 1015.75 1016.15 1016.54 1016.88 1017.18 1017.41 1017.58 1017.68 1017.73
1005.21 1006.23 1007.35 1008.43 1009.38 1010.15 1010.71 1011.10 1011.36 1011.54 1011.70 1011.86 1012.04 1012.22 1012.38 1012.49 1012.54 1012.52 1012.43 1012.29 1012.14 1012.01 1011.93 1011.91 1011.97 1012.11 1012.32 1012.58 1012.89 1013.22 1013.58 1013.95 1014.34 1014.74 1015.14 1015.55 1015.94 1016.31 1016.65 1016.94 1017.17 1017.37 1017.52
1005.37 1006.36 1007.44 1008.48 1009.41 1010.16 1010.71 1011.08 1011.31 1011.47 1011.59 1011.70 1011.83 1011.97 1012.09 1012.18 1012.22 1012.18 1012.09 1011.94 1011.78 1011.62 1011.50 1011.45 1011.46 1011.55 1011.72 1011.96 1012.24 1012.57 1012.92 1013.30 1013.70 1014.10 1014.51 1014.92 1015.33 1015.72 1016.08 1016.42 1016.73 1017.02 1017.28
1005.58 1006.49 1007.48 1008.46 1009.33 1010.04 1010.56 1010.93 1011.15 1011.30 1011.40 1011.49 1011.58 1011.67 1011.76 1011.82 1011.83 1011.78 1011.68 1011.53 1011.36 1011.19 1011.05 1010.97 1010.95 1011.00 1011.14 1011.34 1011.61 1011.92 1012.28 1012.66 1013.06 1013.47 1013.88 1014.30 1014.71 1015.12 1015.52 1015.91 1016.29 1016.66 1017.02
1005.83 1006.64 1007.52 1008.39 1009.18 1009.83 1010.33 1010.68 1010.91 1011.06 1011.15 1011.22 1011.28 1011.34 1011.38 1011.41 1011.39 1011.32 1011.22 1011.07 1010.90 1010.74 1010.59 1010.49 1010.45 1010.48 1010.59 1010.77 1011.02 1011.32 1011.66 1012.04 1012.44 1012.85 1013.27 1013.70 1014.12 1014.55 1014.98 1015.41 1015.85 1016.30 1016.75
1006.13 1006.83 1007.58 1008.33 1009.01 1009.59 1010.06 1010.40 1010.63 1010.79 1010.88 1010.94 1010.97 1010.99 1010.99 1010.96 1010.91 1010.82 1010.70 1010.56 1010.40 1010.25 1010.12 1010.03 1009.98 1010.01 1010.09 1010.25 1010.47 1010.75 1011.08 1011.45 1011.84 1012.25 1012.68 1013.11 1013.54 1013.99 1014.45 1014.92 1015.41 1015.92 1016.44
1006.47 1007.06 1007.68 1008.29 1008.87 1009.38 1009.80 1010.13 1010.37 1010.53 1010.63 1010.67 1010.67 1010.64 1010.58 1010.50 1010.39 1010.27 1010.14 1010.00 1009.86 1009.74 1009.63 1009.56 1009.54 1009.56 1009.64 1009.78 1009.97 1010.22 1010.53 1010.87 1011.25 1011.66 1012.08 1012.51 1012.96 1013.42 1013.90 1014.41 1014.94 1015.49 1016.07
1006.82 1007.30 1007.80 1008.29 1008.77 1009.20 1009.59 1009.91 1010.15 1010.32 1010.41 1010.43 1010.39 1010.30 1010.16 1010.01 1009.85 1009.68 1009.53 1009.39 1009.27 1009.18 1009.11 1009.08 1009.08 1009.12 1009.19 1009.32 1009.49 1009.72 1009.99 1010.31 1010.66 1011.05 1011.46 1011.90 1012.35 1012.83 1013.34 1013.86 1014.42 1015.01 1015.62
1007.10 1007.50 1007.90 1008.30 1008.69 1009.06 1009.42 1009.73 1009.97 1010.14 1010.22 1010.21 1010.12 1009.95 1009.74 1009.51 1009.27 1009.05 1008.87 1008.72 1008.62 1008.57 1008.54 1008.56 1008.59 1008.65 1008.74 1008.86 1009.02 1009.21 1009.45 1009.74 1010.07 1010.43 1010.84 1011.27 1011.73 1012.22 1012.74 1013.29 1013.86 1014.47 1015.09
1007.27 1007.62 1007.94 1008.26 1008.58 1008.92 1009.25 1009.55 1009.80 1009.96 1010.03 1009.98 1009.83 1009.60 1009.31 1008.99 1008.67 1008.39 1008.17 1008.02 1007.93 1007.90 1007.92 1007.98 1008.05 1008.15 1008.25 1008.37 1008.52 1008.69 1008.91 1009.17 1009.47 1009.83 1010.22 1010.65 1011.12 1011.62 1012.14 1012.70 1013.29 1013.89 1014.51
1007.26 1007.58 1007.85 1008.12 1008.41 1008.71 1009.03 1009.33 1009.58 1009.74 1009.79 1009.71 1009.52 1009.22 1008.85 1008.45 1008.07 1007.73 1007.47 1007.30 1007.21 1007.20 1007.26 1007.35 1007.47 1007.60 1007.73 1007.86 1008.01 1008.18 1008.38 1008.62 1008.91 1009.26 1009.64 1010.08 1010.55 1011.06 1011.59 1012.15 1012.74 1013.34 1013.95
1007.08 1007.37 1007.62 1007.85 1008.11 1008.40 1008.71 1009.01 1009.26 1009.42 1009.46 1009.37 1009.14 1008.80 1008.38 1007.93 1007.49 1007.10 1006.81 1006.61 1006.52 1006.53 1006.60 1006.73 1006.88 1007.03 1007.19 1007.34 1007.50 1007.68 1007.88 1008.13 1008.42 1008.76 1009.16 1009.59 1010.07 1010.59 1011.13 1011.69 1012.27 1012.86 1013.45
1006.75 1007.03 1007.25 1007.46 1007.70 1007.97 1008.27 1008.57 1008.82 1008.99 1009.04 1008.95 1008.72 1008.37 1007.92 1007.44 1006.97 1006.56 1006.24 1006.03 1005.93 1005.93 1006.02 1006.15 1006.33 1006.51 1006.69 1006.86 1007.05 1007.24 1007.46 1007.72 1008.03 1008.38 1008.78 1009.23 1009.72 1010.24 1010.78 1011.34 1011.91 1012.48 1013.05
1006.37 1006.62 1006.81 1006.99 1007.21 1007.46 1007.75 1008.04 1008.30 1008.48 1008.54 1008.47 1008.26 1007.92 1007.50 1007.02 1006.55 1006.14 1005.81 1005.59 1005.48 1005.47 1005.55 1005.69 1005.87 1006.06 1006.26 1006.46 1006.67 1006.89 1007.14 1007.43 1007.75 1008.13 1008.54 1009.00 1009.49 1010.01 1010.55 1011.10 1011.66 1012.22 1012.77
1006.03 1006.24 1006.39 1006.54 1006.72 1006.94 1007.20 1007.48 1007.73 1007.92 1008.00 1007.96 1007.79 1007.50 1007.12 1006.69 1006.26 1005.86 1005.54 1005.32 1005.20 1005.18 1005.25 1005.38 1005.55 1005.74 1005.96 1006.18 1006.41 1006.66 1006.94 1007.25 1007.60 1007.99 1008.42 1008.88 1009.37 1009.88 1010.40 1010.94 1011.48 1012.02 1012.56
1005.83 1005.99 1006.10 1006.20 1006.33 1006.50 1006.71 1006.95 1007.18 1007.37 1007.46 1007.46 1007.34 1007.11 1006.80 1006.44 1006.06 1005.71 1005.42 1005.22 1005.09 1005.06 1005.10 1005.22 1005.37 1005.56 1005.78 1006.02 1006.27 1006.54 1006.84 1007.18 1007.54 1007.93 1008.36 1008.81 1009.28 1009.77 1010.27 1010.79 1011.31 1011.83 1012.36
1005.86 1005.96 1006.01 1006.05 1006.11 1006.22 1006.36 1006.54 1006.73 1006.88 1006.98 1007.00 1006.92 1006.76 1006.53 1006.24 1005.94 1005.65 1005.40 1005.22 1005.10 1005.06 1005.09 1005.18 1005.33 1005.51 1005.72 1005.96 1006.23 1006.52 1006.83 1007.17 1007.53 1007.92 1008.32 1008.74 1009.18 1009.63 1010.10 1010.58 1011.07 1011.58 1012.10
1006.12 1006.16 1006.16 1006.13 1006.12 1006.14 1006.20 1006.29 1006.40 1006.50 1006.57 1006.58 1006.54 1006.42 1006.26 1006.05 1005.82 1005.60 1005.40 1005.25 1005.15 1005.12 1005.14 1005.22 1005.35 1005.52 1005.73 1005.98 1006.25 1006.54 1006.86 1007.19 1007.53 1007.89 1008.25 1008.62 1009.00 1009.40 1009.81 1010.25 1010.71 1011.20 1011.71
1006.58 1006.58 1006.53 1006.44 1006.35 1006.28 1006.24 1006.22 1006.23 1006.24 1006.24 1006.22 1006.17 1006.08 1005.95 1005.80 1005.64 1005.48 1005.34 1005.23 1005.16 1005.14 1005.16 1005.24 1005.37 1005.55 1005.76 1006.01 1006.28 1006.57 1006.88 1007.19 1007.50 1007.80 1008.10 1008.40 1008.71 1009.03 1009.38 1009.77 1010.19 1010.66 1011.17
Thickness
5795 5793 5789 5784 5778 5772 5766 5762 5757 5754 5750 5745 5741 5737 5735 5734 5733 5732 5730 5727 5724 5723 5721 5719 5717 5716 5714 5712 5711 5708 5707 5707 5708 5705 5705 5709 5713 5714 5715 5716 5714 5715 5714
5790 5788 5785 5781 5775 5769 5764 5760 5756 5752 5748 5745 5741 5737 5734 5731 5730 5728 5726 5724 5722 5719 5718 5714 5712 5711 5709 5707 5706 5704 5701 5702 5703 5699 5695 5695 5699 5705 5710 5711 5710 5711 5710
5787 5785 5782 5778 5774 5768 5764 5760 5755 5751 5747 5744 5740 5735 5731 5728 5725 5723 5721 5720 5718 5716 5713 5710 5707 5706 5704 5702 5701 5699 5697 5695 5697 5697 5692 5687 5687 5692 5700 5704 5705 5706 5705
5790 5786 5780 5775 5772 5769 5765 5760 5754 5749 5745 5741 5736 5730 5726 5722 5721 5720 5718 5716 5714 5712 5709 5706 5703 5701 5699 5697 5696 5696 5695 5692 5690 5691 5692 5690 5688 5683 5685 5692 5698 5699 5699
5791 5785 5779 5775 5772 5768 5763 5758 5752 5746 5742 5738 5734 5729 5724 5721 5719 5716 5713 5711 5710 5708 5705 5703 5700 5697 5695 5694 5692 5692 5691 5689 5686 5685 5685 5684 5684 5683 5678 5678 5684 5688 5692
5790 5784 5779 5774 5769 5765 5760 5754 5747 5742 5739 5735 5731 5726 5721 5718 5714 5711 5708 5706 5705 5703 5701 5699 5696 5693 5691 5690 5689 5688 5686 5685 5683 5682 5681 5679 5677 5677 5675 5674 5676 5678 5683
5785 5780 5774 5769 5764 5759 5755 5750 5743 5738 5735 5731 5727 5723 5719 5715 5711 5708 5705 5703 5700 5698 5697 5696 5693 5690 5688 5686 5685 5683 5681 5680 5678 5677 5676 5676 5676 5676 5674 5672 5671 5672 5676
5781 5776 5771 5766 5761 5756 5751 5746 5740 5735 5732 5728 5724 5720 5716 5712 5709 5706 5703 5700 5698 5696 5694 5692 5689 5687 5685 5683 5681 5679 5678 5677 5675 5674 5672 5671 5672 5672 5671 5669 5666 5664 5667
5775 5771 5767 5763 5758 5753 5748 5743 5737 5731 5727 5724 5720 5716 5713 5709 5706 5703 5700 5698 5695 5693 5691 5688 5686 5683 5682 5680 5677 5675 5673 5672 5670 5669 5668 5667 5667 5667 5667 5667 5664 5659 5657
5771 5767 5763 5758 5754 5749 5745 5739 5734 5727 5723 5719 5716 5713 5710 5706 5703 5699 5696 5694 5692 5690 5687 5684 5682 5679 5677 5676 5673 5670 5669 5667 5665 5664 5662 5661 5662 5662 5662 5661 5660 5659 5655
5765 5762 5758 5754 5749 5744 5739 5732 5728 5723 5719 5715 5711 5708 5705 5702 5698 5695 5692 5689 5687 5685 5682 5680 5678 5675 5673 5672 5669 5666 5665 5663 5661 5660 5658 5656 5656 5655 5655 5655 5654 5654 5653
5761 5758 5753 5748 5742 5736 5732 5727 5723 5718 5714 5711 5707 5703 5699 5696 5692 5690 5687 5685 5683 5681 5679 5677 5674 5672 5670 5668 5665 5663 5662 5659 5656 5655 5653 5652 5652 5650 5650 5649 5649 5649 5650
5754 5750 5746 5740 5735 5729 5725 5721 5717 5713 5710 5706 5701 5697 5694 5690 5688 5685 5683 5681 5678 5676 5675 5673 5670 5667 5666 5664 5663 5660 5658 5656 5653 5652 5650 5649 5647 5646 5645 5644 5644 5644 5646
5745 5740 5736 5732 5727 5722 5718 5715 5711 5709 5705 5701 5696 5692 5689 5686 5684 5681 5679 5677 5674 5672 5670 5668 5666 5664 5662 5661 5659 5657 5654 5652 5650 5649 5647 5646 5644 5642 5640 5639 5639 5639 5638
5738 5732 5727 5724 5719 5715 5712 5709 5706 5703 5700 5695 5691 5687 5685 5682 5680 5677 5674 5672 5670 5668 5665 5663 5661 5659 5657 5656 5654 5651 5650 5647 5645 5644 5643 5642 5641 5639 5637 5636 5634 5633 5632
5732 5728 5723 5719 5713 5710 5707 5704 5700 5698 5695 5690 5686 5683 5680 5677 5675 5672 5670 5667 5665 5662 5661 5659 5656 5654 5653 5649 5646 5644 5643 5641 5639 5638 5637 5637 5636 5635 5632 5631 5630 5629 5627
5727 5723 5718 5714 5709 5705 5702 5698 5695 5693 5689 5685 5681 5679 5675 5672 5669 5668 5665 5662 5659 5657 5655 5653 5651 5649 5646 5643 5640 5638 5636 5635 5633 5632 5631 5631 5632 5629 5628 5626 5625 5624 5623
5722 5718 5713 5709 5705 5702 5697 5694 5691 5687 5684 5680 5677 5674 5671 5668 5665 5662 5660 5657 5654 5651 5649 5647 5646 5644 5641 5637 5634 5632 5630 5629 5629 5628 5627 5626 5625 5625 5622 5621 5620 5619 5619
5718 5714 5710 5705 5700 5696 5692 5688 5685 5681 5678 5675 5672 5670 5667 5663 5660 5657 5654 5652 5649 5646 5644 5642 5641 5639 5635 5631 5628 5625 5625 5624 5623 5623 5623 5622 5620 5618 5617 5615 5614 5614 5614
5713 5708 5705 5700 5694 5690 5687 5682 5678 5675 5672 5671 5669 5667 5663 5659 5655 5652 5650 5647 5644 5642 5640 5639 5637 5635 5631 5627 5623 5620 5620 5619 5619 5618 5617 5616 5614 5612 5610 5609 5609 5608 5609
5704 5701 5697 5692 5687 5684 5681 5675 5672 5669 5669 5667 5664 5661 5658 5654 5651 5648 5646 5642 5640 5638 5636 5634 5633 5631 5627 5623 5619 5616 5614 5614 5613 5612 5611 5610 5608 5606 5604 5603 5603 5603 5603
5695 5692 5688 5684 5681 5678 5674 5669 5666 5666 5664 5661 5658 5655 5652 5650 5648 5644 5641 5639 5635 5633 5631 5629 5627 5626 5623 5620 5615 5612 5609 5608 5607 5606 5606 5605 5602 5600 5599 5598 5599 5598 5597
5687 5685 5681 5677 5674 5672 5668 5663 5661 5661 5658 5655 5652 5649 5646 5644 5642 5638 5635 5633 5631 5628 5626 5624 5621 5620 5618 5615 5611 5607 5604 5602 5601 5601 5600 5598 5596 5594 5595 5595 5594 5593 5594
5679 5677 5674 5669 5666 5665 5663 5660 5658 5656 5652 5648 5645 5643 5640 5638 5636 5633 5631 5628 5625 5622 5620 5617 5614 5612 5611 5608 5604 5601 5598 5596 5595 5594 5594 5593 5592 5591 5591 5591 5591 5591 5592
5672 5670 5666 5662 5660 5659 5658 5656 5653 5650 5645 5642 5639 5637 5636 5634 5631 5628 5624 5621 5618 5615 5612 5611 5608 5605 5603 5599 5595 5592 5592 5591 5589 5587 5588 5589 5589 5589 5589 5589 5589 5589 5589
5665 5662 5659 5657 5655 5654 5651 5650 5648 5644 5639 5635 5633 5632 5630 5628 5625 5622 5618 5614 5611 5608 5605 5603 5601 5599 5596 5593 5590 5588 5585 5583 5581 5580 5583 5585 5586 5586 5586 5585 5585 5585 5585